Theta_e
341 337 334 330 314 309 303 307 312 311 312 318 322 319 317 320 318 308 328 334 341 342 345 349 352 351 350 350 347 346 346 345 342 339 338 336 335 335 333 332 333 334 334 335 334 335 335 335 334
334 334 334 322 307 299 302 309 309 311 317 323 324 323 321 317 323 328 328 340 344 345 345 346 352 351 350 346 344 343 342 342 341 338 336 335 336 334 332 331 333 334 334 333 334 334 334 333 333
334 337 320 314 305 300 302 309 311 315 321 321 320 325 322 318 331 331 335 342 344 345 345 346 352 351 348 344 341 339 338 337 338 339 336 334 333 330 331 332 332 332 332 332 332 332 333 333 333
330 325 320 311 306 310 309 312 315 316 319 322 324 319 325 329 332 334 340 343 343 342 345 349 352 350 346 342 340 338 336 335 337 336 335 335 331 331 331 330 331 329 328 329 330 331 331 332 332
326 319 308 305 308 315 314 313 314 314 318 319 323 319 321 332 337 339 340 341 341 341 343 347 352 349 344 341 339 336 335 336 337 336 336 332 330 331 330 330 332 329 328 329 331 332 332 333 333
319 316 307 303 304 311 310 314 315 315 320 321 322 320 320 335 336 338 340 339 342 342 344 346 351 347 344 341 337 334 332 333 334 334 332 331 333 331 331 331 332 331 331 331 333 334 335 336 336
316 313 308 307 304 309 310 311 317 319 320 321 325 318 322 332 337 341 342 342 343 344 344 344 343 342 344 341 337 334 332 331 331 330 330 331 333 333 334 334 334 333 332 333 335 336 336 336 336
320 314 309 308 308 305 311 312 312 319 319 327 329 319 317 327 341 343 341 338 340 343 344 340 338 336 333 332 338 335 334 332 331 329 330 333 333 334 335 337 335 335 334 335 336 336 338 338 333
320 307 303 305 306 308 311 311 316 319 323 323 327 325 327 331 341 338 335 334 337 340 339 339 335 332 331 331 332 336 335 334 332 331 332 323 325 323 325 331 338 337 335 335 333 333 332 332 327
311 304 305 310 311 309 312 314 316 317 318 323 324 327 327 330 337 334 332 331 333 336 338 338 334 331 329 333 329 329 330 327 324 320 320 318 318 323 325 329 335 333 331 329 330 331 328 324 314
309 306 308 312 315 313 317 320 322 318 316 323 322 323 324 318 327 332 332 332 333 336 338 338 333 330 328 327 326 327 326 324 323 320 319 316 318 318 316 315 314 313 324 316 317 317 315 314 314
309 313 314 314 317 320 321 325 323 323 324 329 328 326 324 318 315 324 323 319 322 329 336 337 334 331 327 326 326 326 325 324 321 318 319 316 316 318 317 315 314 313 315 315 314 315 315 315 315
310 313 316 317 322 322 324 321 324 324 329 329 328 326 322 321 316 317 319 316 314 323 331 334 334 330 327 325 326 325 323 324 321 318 319 318 316 317 318 316 314 314 316 314 313 313 315 315 315
314 313 313 318 318 321 320 320 323 327 333 328 326 322 322 322 321 317 314 313 313 317 322 325 333 330 329 328 324 322 321 322 319 318 320 320 316 316 318 316 313 315 315 314 313 313 314 314 315
315 311 315 315 318 317 320 316 318 328 332 328 328 327 326 324 323 318 316 314 314 317 322 326 325 328 326 325 323 321 319 322 319 319 320 321 317 316 318 316 313 315 314 314 313 314 314 314 315
311 310 305 312 317 319 315 308 323 328 328 325 326 327 327 328 325 322 317 314 315 320 323 325 329 324 323 325 324 323 321 321 320 319 320 321 320 318 319 316 315 316 314 313 313 313 312 312 313
304 301 305 310 319 319 315 310 322 325 324 321 322 324 327 327 326 323 320 315 316 320 321 323 324 323 323 325 324 322 318 318 318 321 320 321 322 321 317 317 316 315 314 314 313 312 311 311 313
299 302 304 306 315 316 312 313 318 324 325 324 325 326 323 322 322 326 323 319 318 320 320 321 322 323 324 324 321 322 318 317 316 319 321 323 320 323 316 318 318 316 315 314 312 311 311 311 311
305 304 305 309 316 313 311 312 316 317 323 321 319 323 323 322 325 326 322 320 320 320 319 319 320 321 322 321 319 318 317 317 317 319 323 323 320 322 317 318 316 315 315 314 313 312 311 310 312
307 306 306 311 314 312 312 310 314 314 317 319 319 323 322 323 322 324 321 320 319 319 319 319 321 322 322 320 320 319 318 318 320 320 322 322 321 321 319 318 316 314 314 314 314 312 309 309 311
303 304 307 306 311 312 310 308 309 315 319 320 322 323 322 321 318 320 322 319 319 319 319 319 321 322 321 319 320 319 317 318 317 317 319 320 322 321 321 318 317 314 314 312 313 312 310 309 310
297 307 310 309 303 299 308 296 307 312 314 317 319 319 320 320 322 325 322 320 320 320 320 320 321 322 322 319 319 318 315 315 317 318 319 320 322 322 321 320 318 315 314 312 313 315 312 310 311
302 311 309 308 304 301 304 299 304 311 309 315 317 318 318 321 320 325 322 322 322 323 322 321 321 321 322 319 322 321 318 316 321 319 319 318 318 320 322 320 318 316 314 313 314 314 313 312 311
312 308 304 302 299 294 300 300 300 305 311 316 318 319 320 320 323 323 323 325 323 325 324 324 321 320 321 321 322 322 323 320 319 317 317 317 318 319 319 321 317 317 315 315 316 316 315 315 314
306 299 293 292 293 293 302 300 301 308 315 316 315 318 321 321 322 324 325 324 323 324 325 325 323 322 322 323 322 324 324 321 320 319 318 318 316 318 319 319 316 316 317 318 317 316 316 316 316
303 298 294 289 290 294 303 297 303 313 316 320 321 321 322 320 319 325 325 325 324 325 325 326 325 324 325 327 326 325 325 323 322 321 321 318 316 317 320 320 318 318 319 319 320 320 317 318 316
305 300 302 297 295 293 297 304 309 314 315 317 317 318 320 320 320 320 328 326 325 325 326 326 326 327 328 329 328 326 327 325 324 323 323 321 320 321 320 320 319 319 319 322 324 323 321 315 314
305 307 296 295 291 290 296 298 300 307 310 314 316 317 318 319 319 321 328 329 327 329 329 327 327 328 329 331 329 328 327 328 326 324 322 321 322 322 321 321 320 320 325 325 322 317 311 311 309
302 300 301 298 296 292 292 297 307 307 309 312 313 314 316 316 316 319 327 329 330 330 330 329 328 328 330 331 330 328 326 328 326 324 323 323 322 323 323 323 323 324 316 312 310 307 305 305 305
307 304 300 294 294 296 296 297 310 312 314 315 315 315 315 317 316 319 323 324 329 330 330 329 329 329 331 332 328 324 324 325 326 325 324 323 322 323 323 324 322 313 308 304 302 301 302 301 302
Wind_Speed
1 3 2 4 6 6 3 3 1 2 3 3 2 4 6 3 2 4 1 8 10 11 7 10 13 11 11 10 9 9 9 9 8 7 7 5 5 5 6 6 5 6 6 6 6 7 7 8 8
2 3 4 3 7 4 5 3 1 3 5 7 7 3 4 2 4 5 6 6 11 9 6 6 13 12 11 11 9 9 8 8 7 6 6 4 4 4 3 4 5 6 6 6 6 6 6 6 6
3 2 4 5 4 4 5 3 4 2 7 1 4 4 3 4 3 8 6 13 10 8 5 7 13 13 13 11 9 8 6 6 5 6 5 3 3 3 3 3 5 6 6 7 6 7 7 7 7
2 4 4 5 2 6 4 1 7 6 1 5 4 4 3 3 9 7 14 14 11 6 7 11 14 13 12 10 9 7 7 5 6 6 4 3 3 3 2 3 4 5 5 6 7 7 8 9 9
4 3 4 3 4 5 5 2 8 7 4 4 1 3 2 3 9 17 15 14 12 8 6 9 15 14 12 10 8 7 6 6 7 5 4 3 2 1 2 3 5 5 5 6 7 8 8 9 9
4 3 4 3 4 5 5 7 7 4 4 4 5 4 4 6 13 12 14 13 10 10 6 6 14 13 12 10 8 7 7 6 6 5 3 3 3 3 3 3 3 6 7 7 8 9 10 9 10
5 4 3 3 3 5 5 3 8 7 7 4 9 4 2 5 5 14 10 7 7 6 6 5 5 9 12 10 8 7 7 7 6 5 3 5 6 5 6 6 4 7 9 9 10 11 10 9 10
5 4 1 3 5 6 4 4 4 8 6 5 5 5 5 7 10 10 8 7 6 5 5 5 5 5 5 5 9 8 7 6 5 3 4 7 9 8 8 8 6 7 10 10 12 9 10 10 10
4 4 2 5 5 7 5 3 4 1 7 2 5 6 5 14 13 11 8 4 4 6 5 5 5 6 5 4 5 7 5 4 1 2 3 5 3 3 6 8 7 7 9 8 9 9 11 11 10
4 2 6 4 2 5 4 2 3 4 6 5 4 6 14 16 15 14 11 9 7 9 8 6 6 6 6 5 4 4 1 1 1 2 2 4 4 4 6 3 4 4 8 9 10 11 11 11 3
5 5 5 3 0 4 9 14 12 7 6 2 5 6 11 12 10 13 11 12 16 11 7 9 7 7 7 5 4 2 2 1 1 1 2 3 3 3 3 3 3 3 7 4 6 6 4 7 5
4 4 3 3 6 11 17 18 6 1 8 4 7 8 9 11 11 13 12 11 9 9 13 11 9 8 6 3 4 4 3 2 2 3 2 3 2 3 3 2 3 2 2 4 4 3 4 6 6
2 3 4 7 15 12 16 6 7 3 9 3 5 7 10 13 14 13 13 10 9 11 11 10 10 8 7 6 3 3 4 3 4 3 2 2 3 2 2 1 2 2 2 3 3 4 4 5 6
3 4 4 9 5 5 11 2 6 2 7 3 2 5 6 5 12 7 8 11 12 10 9 8 10 7 6 4 4 4 4 5 4 3 3 3 4 3 1 1 2 2 1 1 2 3 4 4 4
4 6 5 4 1 7 13 6 1 4 5 2 1 3 2 5 5 11 14 13 14 7 7 8 7 6 6 6 4 4 4 5 4 4 4 4 3 1 3 2 1 1 1 3 4 3 3 4 4
5 6 4 3 4 2 3 5 10 6 1 6 5 5 5 2 8 9 9 7 7 8 9 7 7 7 6 6 4 4 4 5 5 4 4 4 3 2 1 1 1 1 2 2 3 3 4 4 4
7 3 2 7 9 4 4 4 4 3 4 3 4 6 7 7 6 7 7 6 6 8 9 7 8 8 8 4 2 4 5 4 3 3 3 4 4 5 3 3 2 3 1 2 3 3 2 3 4
4 4 1 2 5 6 6 6 5 1 5 4 6 8 8 8 9 10 7 10 10 8 7 7 6 7 6 3 3 2 1 2 2 4 4 5 4 5 3 2 3 2 1 2 2 1 2 1 3
3 4 6 2 1 6 5 2 7 11 9 10 8 8 8 9 9 9 7 8 12 8 8 7 9 6 5 2 2 1 3 3 3 4 6 6 5 6 4 2 3 1 2 1 1 1 3 3 4
3 9 3 2 1 5 5 4 5 7 4 6 8 7 8 8 10 7 7 5 5 8 8 7 7 7 5 3 2 2 2 3 3 2 4 6 6 6 5 4 3 3 1 1 1 1 1 1 3
1 5 7 7 4 5 5 5 7 3 3 7 8 7 7 7 6 4 5 4 6 8 9 9 8 8 5 6 2 1 1 2 2 2 2 4 6 6 6 6 4 3 2 2 2 2 1 1 2
2 5 7 14 4 4 3 3 4 4 8 6 10 5 6 7 5 4 4 6 8 8 7 7 8 8 6 7 4 4 3 3 3 3 2 4 5 5 6 5 5 5 3 3 3 2 1 1 2
5 8 7 5 5 6 1 5 8 2 7 11 8 4 4 8 4 5 5 8 8 9 9 8 7 7 6 6 5 5 5 3 2 2 4 3 3 4 5 5 5 5 4 4 5 3 4 3 2
11 8 6 4 4 5 4 4 7 3 6 7 6 7 6 9 2 3 6 6 6 6 6 6 8 7 7 7 7 8 7 6 3 3 3 3 3 3 6 6 5 5 4 5 5 4 5 4 4
10 6 3 4 6 4 4 2 9 6 9 7 7 9 7 6 3 4 8 8 7 9 8 6 7 8 8 8 8 8 8 7 7 6 4 4 3 2 6 5 5 5 6 6 5 5 5 4 4
2 2 7 5 5 5 3 4 8 5 6 7 6 8 10 9 7 8 12 9 9 11 9 8 9 9 8 8 9 7 8 5 5 6 5 4 4 4 4 6 6 7 6 6 5 3 4 5 4
1 3 4 8 3 4 3 6 11 5 9 8 10 8 13 8 9 11 12 10 9 7 10 13 11 10 9 10 7 8 7 7 6 7 5 4 4 4 6 6 7 5 5 6 5 3 4 2 3
2 4 3 4 4 2 4 5 7 6 10 9 10 10 12 5 9 11 14 11 9 13 11 10 12 15 14 11 8 7 7 7 6 5 5 6 5 4 5 6 5 4 4 1 3 4 1 2 2
3 3 7 5 4 6 2 8 7 8 7 9 9 9 8 7 9 8 11 8 10 5 14 13 12 13 10 8 7 6 5 6 6 6 6 6 4 5 6 6 5 4 5 4 6 4 2 2 3
3 5 6 6 3 2 4 8 4 5 3 5 11 10 7 8 11 5 4 5 6 8 10 13 13 7 9 3 1 4 6 6 6 6 6 6 6 6 7 6 6 6 5 5 5 4 2 1 3
Wind_Direction
189 303 270 32 55 58 314 280 65 214 69 325 100 141 151 60 145 210 11 149 124 142 164 172 171 154 141 128 124 119 115 121 124 122 114 101 78 61 49 43 47 44 24 23 15 2 4 2 358
83 297 31 59 77 53 279 266 158 220 148 135 91 68 48 55 92 108 103 139 132 154 168 163 164 151 138 135 132 126 124 130 136 132 121 104 67 38 50 44 38 21 12 7 2 0 352 351 356
123 68 62 81 93 173 219 275 113 147 153 86 104 61 100 144 62 157 137 140 135 165 159 169 160 152 148 144 137 127 124 130 143 147 130 104 67 64 76 44 16 0 0 354 357 356 348 344 347
76 21 42 62 273 254 225 265 123 150 267 42 104 80 57 133 151 162 142 138 154 155 169 175 162 158 152 148 135 124 117 120 149 150 141 109 101 97 79 36 19 4 359 1 359 352 346 341 340
40 59 47 344 284 271 248 139 150 161 157 148 153 149 96 19 108 134 145 155 163 163 176 168 163 161 157 146 134 126 124 115 119 137 135 137 128 62 320 344 3 5 15 17 11 5 358 352 342
47 101 51 301 290 261 303 148 128 125 134 163 93 107 160 136 132 157 154 163 162 160 163 175 166 164 160 153 141 137 135 136 139 147 166 190 217 243 265 289 327 344 346 357 2 351 344 345 340
138 109 202 265 296 300 199 207 145 150 156 216 149 134 87 183 151 148 152 133 134 143 162 174 163 170 165 156 147 153 155 152 157 177 206 244 250 254 268 280 302 327 329 347 352 346 336 340 356
118 101 142 241 253 254 217 169 172 142 207 98 148 168 194 202 153 130 114 102 120 154 180 166 158 155 164 167 163 168 170 172 177 199 247 260 259 264 271 276 290 308 324 342 343 341 335 358 9
116 60 234 250 176 237 166 149 178 229 132 139 174 152 200 125 132 124 109 105 137 179 189 175 169 168 177 176 182 175 188 201 205 358 5 27 65 316 303 275 282 295 310 336 350 4 360 2 6
103 99 235 223 277 240 185 25 185 46 25 24 38 54 101 129 151 150 165 176 187 193 198 187 174 178 179 187 190 166 224 339 21 340 43 74 52 31 20 30 281 359 27 14 2 9 4 357 360
179 182 234 348 354 92 60 27 352 60 334 209 179 142 130 139 162 163 186 191 195 194 190 188 184 185 180 202 174 160 174 240 287 294 65 83 73 56 36 43 21 19 24 19 22 8 10 1 355
158 230 261 105 30 86 96 86 41 320 308 229 184 158 142 156 173 180 193 200 190 187 197 187 188 186 190 186 181 174 171 197 226 235 167 94 68 59 54 55 20 29 3 38 21 0 354 8 2
211 30 44 66 94 103 91 71 127 300 348 216 176 191 179 174 189 197 197 201 187 195 197 184 181 188 188 187 189 173 183 186 202 207 185 111 106 87 45 52 33 357 11 42 13 357 6 7 359
326 29 77 82 48 93 112 224 148 349 292 96 241 270 285 233 196 195 184 197 195 189 183 166 187 185 176 218 179 184 176 184 189 210 199 158 139 163 145 97 32 352 57 34 27 5 356 0 351
70 118 91 347 332 129 108 41 25 261 320 131 31 275 262 258 287 233 209 201 184 180 147 156 150 153 147 149 149 147 182 171 187 211 202 200 133 187 169 105 49 308 6 25 23 15 353 18 4
69 38 45 201 317 335 159 235 220 246 191 76 21 326 289 246 253 238 255 208 149 138 154 145 140 128 120 139 153 163 187 174 190 209 200 225 164 199 190 168 179 280 1 29 20 12 0 20 20
1 155 284 324 22 0 68 260 91 315 171 176 289 316 327 306 300 272 217 187 151 143 139 144 137 136 134 148 139 150 161 179 206 216 214 218 216 201 202 187 200 156 54 23 25 10 22 11 351
246 151 203 189 322 25 36 358 347 224 36 1 353 345 345 315 292 336 218 147 126 117 125 134 127 132 120 101 79 34 15 270 230 225 224 217 220 199 188 175 164 139 80 43 29 12 336 2 319
234 123 110 287 345 56 357 90 322 329 348 343 341 328 329 305 313 13 34 106 115 120 133 150 140 145 127 112 161 171 237 244 226 216 233 203 204 199 185 174 152 126 148 122 328 349 19 345 342
114 111 114 5 64 87 339 336 277 13 312 288 300 313 313 305 329 36 60 70 117 134 151 155 150 163 167 154 183 176 191 252 256 252 237 206 193 189 192 194 186 196 151 27 331 81 359 350 350
266 153 182 150 119 66 134 311 348 341 329 295 297 266 283 296 310 10 104 150 131 143 169 174 171 173 178 184 147 211 22 324 312 282 263 213 190 199 199 194 192 199 162 207 232 192 131 21 313
305 201 148 137 109 168 171 252 296 282 312 288 262 274 354 337 319 357 155 191 164 176 176 166 173 185 191 173 172 181 189 206 223 221 215 226 210 209 203 190 204 208 193 204 235 209 190 119 303
209 94 104 167 111 103 347 75 272 23 277 277 281 329 359 332 272 297 228 201 185 174 185 180 183 198 197 183 184 191 210 222 260 222 183 192 241 230 224 197 211 212 204 221 221 215 206 191 206
144 88 75 53 80 57 302 116 283 277 245 288 306 302 357 345 14 325 259 181 199 191 185 175 189 214 204 193 203 203 208 208 198 206 206 234 229 250 229 210 205 211 219 231 236 235 227 227 236
39 74 9 1 27 219 279 78 240 249 244 242 278 310 324 317 287 227 244 222 190 199 198 185 200 221 210 204 211 210 211 208 209 199 200 207 224 218 221 198 208 213 222 238 241 246 251 245 223
76 170 149 210 165 211 330 238 252 269 293 284 292 288 289 274 269 224 237 241 193 206 199 196 203 224 212 211 216 214 207 209 215 203 188 204 203 207 211 210 217 225 226 234 231 227 246 246 249
258 44 162 107 37 82 261 285 311 220 292 286 282 280 269 251 239 232 231 228 230 202 232 204 206 216 217 217 214 217 212 205 217 218 211 199 197 225 211 210 219 235 251 246 235 229 247 235 254
119 139 60 23 139 156 292 267 243 299 277 286 276 272 275 279 270 244 223 221 219 217 222 217 210 212 208 203 205 224 220 205 211 224 234 209 216 222 223 228 233 243 256 346 113 102 38 78 348
352 26 48 109 112 145 172 266 216 239 262 281 285 281 283 289 295 255 230 225 227 202 217 232 229 222 205 194 201 215 233 225 214 206 225 222 229 218 236 230 212 170 125 105 118 124 79 31 323
155 168 143 114 213 122 145 273 262 241 228 278 280 288 300 298 292 289 340 313 249 231 235 242 239 215 297 307 213 209 245 224 218 211 222 226 231 235 237 212 142 130 136 141 118 109 80 26 288